JG6YCL-13 Weather Reports


time (UTC)temp
F
wind
direction
speed
knots
gust
knots
rain 1hr
in
rain 24hr
in
rain mn
in
humidity
%
barometer
mb
20260504110413 64 0.0 0.0 0.00 0.00 0.00 60 1005.2
20260504100401 65 0.0 0.0 0.00 0.00 0.00 55 1004.3
20260504081840 68 0.0 0.0 0.00 0.00 0.00 49 1003.6
20260504081339 68 0.0 0.0 0.00 0.00 0.00 49 1003.6
20260504080838 68 0.0 0.0 0.00 0.00 0.00 49 1003.6
20260504080337 68 0.0 0.0 0.00 0.00 0.00 49 1003.8
20260504070325 68 0.0 0.0 0.00 0.00 0.00 50 1003.8
20260504050301 69 0.0 0.0 0.00 0.00 0.00 41 1003.1
20260504045801 69 0.0 0.0 0.00 0.00 0.00 43 1003.0
20260504045304 69 0.0 0.0 0.00 0.00 0.00 37 1003.2
20260504044758 69 0.0 0.0 0.00 0.00 0.00 35 1003.0
20260504044257 68 0.0 0.0 0.00 0.00 0.00 37 1002.7
20260504043757 68 0.0 0.0 0.00 0.00 0.00 40 1002.7
20260504043255 68 0.0 0.0 0.00 0.00 0.00 43 1002.8
20260504042755 68 0.0 0.0 0.00 0.00 0.00 45 1002.9
20260504042253 68 0.0 0.0 0.00 0.00 0.00 45 1002.7
20260504041752 68 0.0 0.0 0.00 0.00 0.00 43 1002.7
20260504041251 68 0.0 0.0 0.00 0.00 0.00 44 1002.7
20260504040750 67 0.0 0.0 0.00 0.00 0.00 45 1002.6
20260504040249 67 0.0 0.0 0.00 0.00 0.00 45 1002.6
20260504035748 67 0.0 0.0 0.00 0.00 0.00 47 1002.9
20260504035248 67 0.0 0.0 0.00 0.00 0.00 47 1002.6
20260504034746 67 0.0 0.0 0.00 0.00 0.00 47 1002.7
20260504034245 67 0.0 0.0 0.00 0.00 0.00 48 1002.6
20260504033745 67 0.0 0.0 0.00 0.00 0.00 47 1002.5
20260504033243 68 0.0 0.0 0.00 0.00 0.00 48 1002.6
20260504032743 67 0.0 0.0 0.00 0.00 0.00 45 1002.6
20260504032241 67 0.0 0.0 0.00 0.00 0.00 47 1002.7
20260504031740 67 0.0 0.0 0.00 0.00 0.00 45 1002.6
20260504031239 67 0.0 0.0 0.00 0.00 0.00 48 1002.5
20260504030738 67 0.0 0.0 0.00 0.00 0.00 50 1002.6
20260504030237 67 0.0 0.0 0.00 0.00 0.00 49 1002.5
20260504025736 67 0.0 0.0 0.00 0.00 0.00 49 1002.4
20260504025235 67 0.0 0.0 0.00 0.00 0.00 49 1002.3
20260504024736 67 0.0 0.0 0.00 0.00 0.00 48 1002.4
20260504024233 66 0.0 0.0 0.00 0.00 0.00 49 1002.4
20260504023733 67 0.0 0.0 0.00 0.00 0.00 50 1002.3
20260504023234 67 0.0 0.0 0.00 0.00 0.00 51 1002.4
20260504022730 66 0.0 0.0 0.00 0.00 0.00 52 1002.5
20260504022229 66 0.0 0.0 0.00 0.00 0.00 51 1002.5
20260504021729 66 0.0 0.0 0.00 0.00 0.00 52 1002.6
20260504021227 66 0.0 0.0 0.00 0.00 0.00 52 1002.6
20260504020728 65 0.0 0.0 0.00 0.00 0.00 52 1002.5
20260504020225 65 0.0 0.0 0.00 0.00 0.00 51 1002.6
20260504015724 65 0.0 0.0 0.00 0.00 0.00 52 1002.6
20260504015224 65 0.0 0.0 0.00 0.00 0.00 50 1002.5
20260504014722 65 0.0 0.0 0.00 0.00 0.00 50 1002.4
20260504014221 65 0.0 0.0 0.00 0.00 0.00 49 1002.4
20260504013720 65 0.0 0.0 0.00 0.00 0.00 49 1002.3
20260504013219 65 0.0 0.0 0.00 0.00 0.00 49 1002.2
20260504012720 65 0.0 0.0 0.00 0.00 0.00 49 1002.2
20260504012217 65 0.0 0.0 0.00 0.00 0.00 48 1002.2
20260504011717 65 0.0 0.0 0.00 0.00 0.00 50 1002.3
20260504011215 64 0.0 0.0 0.00 0.00 0.00 49 1002.3
20260504010713 64 0.0 0.0 0.00 0.00 0.00 50 1002.3
20260504010214 64 0.0 0.0 0.00 0.00 0.00 51 1002.1
20260504005714 64 0.0 0.0 0.00 0.00 0.00 52 1002.0
20260504005212 64 0.0 0.0 0.00 0.00 0.00 52 1002.0
20260504004710 63 0.0 0.0 0.00 0.00 0.00 53 1002.0
20260504004209 63 0.0 0.0 0.00 0.00 0.00 54 1001.8
20260504003708 63 0.0 0.0 0.00 0.00 0.00 54 1001.9
20260504003207 63 0.0 0.0 0.00 0.00 0.00 56 1001.7
20260504002708 63 0.0 0.0 0.00 0.00 0.00 57 1001.7
20260504002205 63 0.0 0.0 0.00 0.00 0.00 57 1001.6
20260504001704 63 0.0 0.0 0.00 0.00 0.00 57 1001.2
20260504001204 63 0.0 0.0 0.00 0.00 0.00 57 1001.3
20260504000703 63 0.0 0.0 0.00 0.00 0.00 58 1001.2
20260504000201 63 0.0 0.0 0.00 0.00 0.00 57 1001.1
20260503235700 63 0.0 0.0 0.00 0.00 0.00 57 1001.0
20260503235159 63 0.0 0.0 0.00 0.00 0.00 56 1000.9
20260503234658 62 0.0 0.0 0.00 0.00 0.00 56 1000.7
20260503234157 62 0.0 0.0 0.00 0.00 0.00 57 1000.7
20260503233656 62 0.0 0.0 0.00 0.00 0.00 58 1000.5
20260503233154 62 0.0 0.0 0.00 0.00 0.00 58 1000.5
20260503232654 62 0.0 0.0 0.00 0.00 0.00 58 1000.3
20260503232153 62 0.0 0.0 0.00 0.00 0.00 57 1000.1
20260503231652 62 0.0 0.0 0.00 0.00 0.00 58 1000.1
20260503231151 62 0.0 0.0 0.00 0.00 0.00 59 1000.0
20260503230650 62 0.0 0.0 0.00 0.00 0.00 59 999.8
20260503230149 62 0.0 0.0 0.00 0.00 0.00 61 999.8
20260503225648 62 0.0 0.0 0.00 0.00 0.00 61 999.7
20260503225147 62 0.0 0.0 0.00 0.00 0.00 60 999.7
20260503224647 62 0.0 0.0 0.00 0.00 0.00 59 999.6
20260503223644 61 0.0 0.0 0.00 0.00 0.00 60 999.2
20260503223143 61 0.0 0.0 0.00 0.00 0.00 60 999.2
20260503222642 61 0.0 0.0 0.00 0.00 0.00 59 999.1
20260503222141 61 0.0 0.0 0.00 0.00 0.00 60 999.2
20260503221640 61 0.0 0.0 0.00 0.00 0.00 60 999.0
20260503221139 61 0.0 0.0 0.00 0.00 0.00 61 998.9
20260503220638 61 0.0 0.0 0.00 0.00 0.00 61 998.6
20260503220138 61 0.0 0.0 0.00 0.00 0.00 62 998.7
20260503215636 61 0.0 0.0 0.00 0.00 0.00 63 998.5
20260503215135 61 0.0 0.0 0.00 0.00 0.00 62 998.4
20260503214636 61 0.0 0.0 0.00 0.00 0.00 61 998.2
20260503214133 61 0.0 0.0 0.00 0.00 0.00 61 998.2
20260503213634 61 0.0 0.0 0.00 0.00 0.00 61 998.1
20260503213135 61 0.0 0.0 0.00 0.00 0.00 61 998.0
20260503212630 61 0.0 0.0 0.00 0.00 0.00 64 997.7
20260503212129 61 0.0 0.0 0.00 0.00 0.00 64 997.6
20260503211638 61 0.0 0.0 0.00 0.00 0.00 64 997.4
20260503211127 61 0.0 0.0 0.00 0.00 0.00 65 997.3
20260503210626 61 0.0 0.0 0.00 0.00 0.00 67 997.3
20260503210126 61 0.0 0.0 0.00 0.00 0.00 66 997.1
20260503205625 61 0.0 0.0 0.00 0.00 0.00 66 996.8
20260503205124 61 0.0 0.0 0.00 0.00 0.00 66 996.7
20260503204622 62 0.0 0.0 0.00 0.00 0.00 67 996.5
20260503204122 62 0.0 0.0 0.00 0.00 0.00 68 996.5
20260503203620 62 0.0 0.0 0.00 0.00 0.00 69 996.1
20260503203119 62 0.0 0.0 0.00 0.00 0.00 69 996.4
20260503202618 62 0.0 0.0 0.00 0.00 0.00 68 996.3
20260503202117 62 0.0 0.0 0.00 0.00 0.00 69 996.5
20260503201616 62 0.0 0.0 0.00 0.00 0.00 69 996.5
20260503201115 62 0.0 0.0 0.00 0.00 0.00 72 996.2
20260503200615 62 0.0 0.0 0.00 0.00 0.00 72 996.1
20260503200113 62 0.0 0.0 0.00 0.00 0.00 72 996.2
20260503195612 62 0.0 0.0 0.00 0.00 0.00 71 996.2
20260503195112 62 0.0 0.0 0.00 0.00 0.00 71 996.0
20260503194610 62 0.0 0.0 0.00 0.00 0.00 72 996.2
20260503194110 62 0.0 0.0 0.00 0.00 0.00 72 996.2
20260503193608 62 0.0 0.0 0.00 0.00 0.00 72 996.1
20260503193107 62 0.0 0.0 0.00 0.00 0.00 72 996.1
20260503192606 62 0.0 0.0 0.00 0.00 0.00 72 996.0
20260503192105 62 0.0 0.0 0.00 0.00 0.00 71 995.9
20260503191605 62 0.0 0.0 0.00 0.00 0.00 72 995.9
20260503191103 62 0.0 0.0 0.00 0.00 0.00 73 995.9
20260503190602 62 0.0 0.0 0.00 0.00 0.00 72 995.7
20260503190103 62 0.0 0.0 0.00 0.00 0.00 72 995.7
20260503185600 62 0.0 0.0 0.00 0.00 0.00 72 995.8
20260503185059 62 0.0 0.0 0.00 0.00 0.00 72 995.8
20260503184558 62 0.0 0.0 0.00 0.00 0.00 72 995.8
20260503184058 62 0.0 0.0 0.00 0.00 0.00 72 995.9
20260503183556 62 0.0 0.0 0.00 0.00 0.00 73 995.9
20260503183055 62 0.0 0.0 0.00 0.00 0.00 73 995.9
20260503182554 62 0.0 0.0 0.00 0.00 0.00 72 995.8
20260503182053 62 0.0 0.0 0.00 0.00 0.00 73 995.7
20260503181552 62 0.0 0.0 0.00 0.00 0.00 74 995.7
20260503181051 62 0.0 0.0 0.00 0.00 0.00 74 995.7
20260503180551 62 0.0 0.0 0.00 0.00 0.00 74 995.6
20260503180049 62 0.0 0.0 0.00 0.00 0.00 74 995.8
20260503175548 62 0.0 0.0 0.00 0.00 0.00 74 995.9
20260503175047 62 0.0 0.0 0.00 0.00 0.00 75 995.6
20260503174546 62 0.0 0.0 0.00 0.00 0.00 74 995.7
20260503174046 62 0.0 0.0 0.00 0.00 0.00 75 995.8
20260503173544 62 0.0 0.0 0.00 0.00 0.00 74 995.7
20260503173044 63 0.0 0.0 0.00 0.00 0.00 75 995.6
20260503172542 63 0.0 0.0 0.00 0.00 0.00 75 995.7
20260503172041 63 0.0 0.0 0.00 0.00 0.00 75 995.6
20260503171540 63 0.0 0.0 0.00 0.00 0.00 74 995.3
20260503171039 63 0.0 0.0 0.00 0.00 0.00 74 995.4
20260503170538 63 0.0 0.0 0.00 0.00 0.00 76 995.3
20260503150515 63 0.0 0.0 0.00 0.00 0.00 81 994.7
20260503130956 64 0.0 0.0 0.00 0.00 0.00 81 994.2
20260503130451 64 0.0 0.0 0.00 0.00 0.00 82 994.1